AirNav   Air Wisconsin pilot careers
 
 304 users online  

UT46 Tooele Army Depot (South Area) Heliport
Tooele, Utah, USA

GOING TO TOOELE?


FAA INFORMATION EFFECTIVE 01 FEBRUARY 2018

Location

FAA Identifier: UT46
Lat/Long: 40-19-02.8040N / 112-18-30.8120W
40-19.046733N / 112-18.513533W
40.3174456 / -112.3085589
(estimated)
Elevation: 5355 ft. / 1632 m (estimated)
Variation: 14E (1990)
From city: 8 miles N of TOOELE, UT
Time zone: UTC -7 (UTC -6 during Daylight Saving Time)
Zip code: 84071

Heliport Operations

Heliport use: Private use. Permission required prior to landing
Activation date: 11/2002
Control tower: no
ARTCC: SALT LAKE CITY CENTER
FSS: CEDAR CITY FLIGHT SERVICE STATION
Attendance: UNATNDD
Wind indicator: yes
Segmented circle: no

Heliport Communications

WX AWOS-3 at TVY (18 nm N): 119.725 (435-882-6648)

Nearby radio navigation aids

VOR radial/distance  VOR name  Freq  Var
FFUr263/17.0FAIRFIELD VORTAC116.6016E
PVUr268/27.6PROVO VOR/DME108.4015E
TCHr189/35.3WASATCH VORTAC116.8016E

Heliport Services

Runway Information

Helipad H1

Dimensions: 75 x 75 ft. / 23 x 23 m
Surface: concrete
Runway edge lights: PERIMETER LIGHTS.
Traffic pattern: leftleft

Heliport Ownership and Management from official FAA records

Ownership: Privately-owned
Owner: UNITED STATES ARMY
CHIEF, FACILITIES ENGINEERING
TOOELE, UT 84074
Phone 435-833-2114
Manager: SDSTE-IO-E, TOOELE ARMY DEPOT
TOOELE, UT 84074
Phone 801-833-2114

Instrument Procedures

There are no published instrument procedures at UT46.

Some nearby airports with instrument procedures:

KTVY - Bolinder Field-Tooele Valley Airport (18 nm N)
U42 - South Valley Regional Airport (23 nm NE)
KPVU - Provo Municipal Airport (27 nm E)
KDPG - Michael Army Airfield (Dugway Proving Ground) (30 nm W)
KSLC - Salt Lake City International Airport (32 nm NE)
 
Loc | Ops | Rwys | IFR | FBO | Links
Com | Nav | Svcs | Stats | Notes

TAC Air
 
Area around UT46 (Tooele Army Depot (South Area) Heliport)
 
Road maps at: MapQuest Bing Google
 
Aerial photo
No photo
 
Sectional chart

 
Airport distance calculator
Flying to Tooele Army Depot (South Area) Heliport? Find the distance to fly.

From to UT46

Sunrise and sunset
Times for 25-Feb-2018
 Local
(UTC-7)
 Zulu
(UTC)
Morning civil twilight06:4213:42
Sunrise07:1014:10
Sunset18:1501:15
Evening civil twilight18:4201:42

Current date and time
Zulu (UTC)  25-Feb-2018 08:36:21
Local (UTC-7)  25-Feb-2018 01:36:21
 
METAR
KU42 
23nm NE 
250815Z AUTO 14004KT 2 1/2SM SCT006 BKN022 OVC055 M05/M05 A3005 RMK AO1 T10501051
KPVU 
28nm E 
250756Z AUTO 15005KT 7SM BR BKN032 OVC085 M07/M08 A3005 RMK AO2 SLP205 T10671083
KSLC 
32nm NE 
250810Z 20004KT 10SM SCT022 SCT036 OVC100 M02/M06 A3005 RMK AO2 SNE02 P0000 T10221056
TAF
KPVU 
28nm E 
250801Z 2508/2606 VRB04KT P6SM VCSH SCT020 BKN040 FM250900 32008KT 2SM -SN BR SCT007 BKN015 FM251100 VRB04KT P6SM VCSH SCT020 BKN040 FM251500 VRB04KT P6SM SCT040 BKN080
KSLC 
32nm NE 
250734Z 2508/2612 31008KT 3SM -SN BR SCT007 BKN025 FM250900 16006KT P6SM VCSH SCT020 BKN040 FM251500 16012G20KT P6SM SCT040 BKN080
NOTAMs
Click for the latest NOTAMs
NOTAMs are issued by the DoD/FAA and will open in a separate window not controlled by AirNav.

 

 
 

Would you like to see your business listed on this page?

 If your business provides an interesting product or service to pilots, flight crews, aircraft, or users of the Tooele Army Depot (South Area) Heliport, you should consider listing it here.  To start the listing process, click on the button below
 
Add a business
 

Other Pages about Tooele Army Depot (South Area) Heliport

Update a link
 
Copyright © AirNav, LLC. All rights reserved. Privacy Policy  Contact